Duncan, OK

9:46 PM CDT on March 27, 2017 (GMT -0500)
Halliburton

Weather History for KDUC - March, 2013

Change the Weather History Date:

Monday, March 18, 2013

  Actual Average (KLAW) Record (KLAW)
Temperature  
Mean Temperature 52 °F -  
Max Temperature 64 °F 66 °F 87 °F (1963)
Min Temperature 41 °F 41 °F 20 °F (1965)
Degree Days  
Heating Degree Days 12    
Growing Degree Days 2 (Base 50)    
Moisture  
Dew Point 38 °F    
Average Humidity 65    
Maximum Humidity 100    
Minimum Humidity 30    
Precipitation  
Precipitation 0.00 in - - ()
Sea Level Pressure  
Sea Level Pressure 29.88 in    
Wind  
Wind Speed 10 mph (NNE)    
Max Wind Speed 20 mph    
Max Gust Speed 26 mph    
Visibility 10 miles    
Events      
Averages and records for this station are not official NWS values.
T = Trace of Precipitation, MM = Missing Value Source: NWS Daily Summary

Daily Weather History Graph

Daily Weather History Graph

Search for Another Location

Airport or City:

Trip Planner

Search our weather history database for the weather conditions in past years. The results will help you decide how hot, cold, wet, or windy it might be!

Date:

Astronomy

Mar. 18, 2013 Rise Set
Actual Time 7:37 AM CDT 7:42 PM CDT
Civil Twilight 7:12 AM CDT 8:07 PM CDT
Nautical Twilight 6:43 AM CDT 8:36 PM CDT
Astronomical Twilight 6:14 AM CDT 9:06 PM CDT
Moon 11:52 AM CDT (3/18) 1:28 AM CDT (3/18)
Length of Visible Light 12h 54m
Length of Day
12h 04m
Waxing Crescent, 41% of the Moon is Illuminated
Mar 18
Waxing Crescent
Mar 19
First Quarter
Mar 27
Full
Apr 2
Last Quarter
Apr 10
New

Hourly Weather History & Observations

Time (CDT) Temp. Windchill Dew Point Humidity Pressure Visibility Wind Dir Wind Speed Gust Speed Precip Events Conditions
12:15 AM 44.6 °F 42.2 °F 41.0 °F 87% 29.65 in 10.0 mi ENE 4.6 mph - N/A   Clear
12:55 AM 42.8 °F 40.1 °F 41.0 °F 93% 29.65 in 10.0 mi ENE 4.6 mph - N/A   Clear
1:15 AM 44.6 °F 41.4 °F 41.0 °F 87% 29.65 in 10.0 mi ENE 5.8 mph - N/A   Clear
1:35 AM 44.6 °F 43.1 °F 41.0 °F 87% 29.65 in 10.0 mi ENE 3.5 mph - N/A   Clear
1:55 AM 42.8 °F 40.1 °F 41.0 °F 93% 29.65 in 10.0 mi East 4.6 mph - N/A   Clear
2:15 AM 42.8 °F 38.6 °F 41.0 °F 93% 29.64 in 10.0 mi East 6.9 mph - N/A   Clear
2:35 AM 42.8 °F 38.6 °F 41.0 °F 93% 29.64 in 10.0 mi East 6.9 mph - N/A   Clear
2:55 AM 42.8 °F 38.6 °F 41.0 °F 93% 29.63 in 10.0 mi East 6.9 mph - N/A   Clear
3:15 AM 42.8 °F 38.0 °F 42.8 °F 100% 29.63 in 10.0 mi East 8.1 mph - N/A   Clear
3:35 AM 42.8 °F 38.6 °F 42.8 °F 100% 29.64 in 10.0 mi East 6.9 mph - N/A   Clear
3:55 AM 44.6 °F 41.4 °F 42.8 °F 93% 29.64 in 10.0 mi East 5.8 mph - N/A   Clear
4:15 AM 44.6 °F 38.4 °F 42.8 °F 93% 29.68 in 10.0 mi NNE 12.7 mph 26.5 mph N/A   Scattered Clouds
4:35 AM 44.6 °F 38.8 °F 42.8 °F 93% 29.70 in 10.0 mi NNE 11.5 mph 21.9 mph N/A   Scattered Clouds
4:55 AM 42.8 °F 37.0 °F 41.0 °F 93% 29.71 in 10.0 mi NE 10.4 mph 20.7 mph N/A   Clear
5:15 AM 42.8 °F 35.4 °F 41.0 °F 93% 29.72 in 10.0 mi NE 15.0 mph 19.6 mph N/A   Clear
5:35 AM 42.8 °F 36.2 °F 41.0 °F 93% 29.74 in 10.0 mi NE 12.7 mph 17.3 mph N/A   Clear
5:55 AM 42.8 °F 34.3 °F 41.0 °F 93% 29.78 in 10.0 mi NE 19.6 mph 25.3 mph N/A   Mostly Cloudy
6:15 AM 42.8 °F 34.8 °F 41.0 °F 93% 29.79 in 10.0 mi NE 17.3 mph 23.0 mph N/A   Overcast
6:35 AM 42.8 °F 36.2 °F 41.0 °F 93% 29.80 in 10.0 mi NE 12.7 mph 20.7 mph N/A   Scattered Clouds
6:55 AM 42.8 °F 34.5 °F 41.0 °F 93% 29.82 in 10.0 mi North 18.4 mph 21.9 mph N/A   Mostly Cloudy
7:15 AM 42.8 °F 35.4 °F 41.0 °F 93% 29.84 in 10.0 mi NNE 15.0 mph 26.5 mph N/A   Overcast
7:35 AM 41.0 °F 35.2 °F 41.0 °F 100% 29.84 in 10.0 mi NNE 9.2 mph - N/A   Scattered Clouds
7:55 AM 41.0 °F 37.1 °F 41.0 °F 100% 29.84 in 10.0 mi NNE 5.8 mph - N/A   Clear
8:15 AM 41.0 °F 33.5 °F 41.0 °F 100% 29.87 in 10.0 mi North 13.8 mph 18.4 mph N/A   Scattered Clouds
8:35 AM 42.8 °F 34.8 °F 41.0 °F 93% 29.88 in 10.0 mi North 17.3 mph 20.7 mph N/A   Overcast
8:55 AM 42.8 °F 34.5 °F 41.0 °F 93% 29.90 in 10.0 mi North 18.4 mph 21.9 mph N/A   Overcast
9:15 AM 42.8 °F 37.5 °F 42.8 °F 100% 29.92 in 10.0 mi North 9.2 mph 12.7 mph N/A   Overcast
9:35 AM 44.6 °F 38.1 °F 42.8 °F 93% 29.93 in 10.0 mi North 13.8 mph 19.6 mph N/A   Mostly Cloudy
9:55 AM 46.4 °F 40.4 °F 42.8 °F 87% 29.94 in 10.0 mi North 13.8 mph - N/A   Scattered Clouds
10:15 AM 48.2 °F - 42.8 °F 82% 29.93 in 10.0 mi North 15.0 mph 20.7 mph N/A   Scattered Clouds
10:35 AM 50.0 °F - 42.8 °F 76% 29.94 in 10.0 mi North 11.5 mph - N/A   Clear
10:55 AM 50.0 °F - 41.0 °F 71% 29.94 in 10.0 mi North 12.7 mph - N/A   Clear
11:15 AM 51.8 °F - 41.0 °F 67% 29.95 in 10.0 mi NNE 15.0 mph - N/A   Clear
11:35 AM 53.6 °F - 41.0 °F 62% 29.96 in 10.0 mi NNE 11.5 mph - N/A   Clear
11:55 AM 53.6 °F - 41.0 °F 62% 29.96 in 10.0 mi North 12.7 mph 18.4 mph N/A   Clear
12:15 PM 55.4 °F - 41.0 °F 58% 29.96 in 10.0 mi NNE 10.4 mph - N/A   Clear
12:35 PM 57.2 °F - 41.0 °F 55% 29.97 in 10.0 mi North 12.7 mph 18.4 mph N/A   Clear
12:55 PM 57.2 °F - 41.0 °F 55% 29.96 in 10.0 mi North 15.0 mph - N/A   Clear
1:15 PM 59.0 °F - 39.2 °F 48% 29.97 in 10.0 mi NNE 12.7 mph - N/A   Clear
1:35 PM 59.0 °F - 37.4 °F 45% 29.96 in 10.0 mi NNE 13.8 mph 20.7 mph N/A   Clear
1:55 PM 60.8 °F - 39.2 °F 45% 29.95 in 10.0 mi North 17.3 mph 20.7 mph N/A   Clear
2:15 PM 60.8 °F - 37.4 °F 42% 29.95 in 10.0 mi NNE 11.5 mph 20.7 mph N/A   Clear
2:35 PM 60.8 °F - 37.4 °F 42% 29.95 in 10.0 mi NNE 11.5 mph 19.6 mph N/A   Clear
2:55 PM 62.6 °F - 37.4 °F 39% 29.95 in 10.0 mi North 16.1 mph 21.9 mph N/A   Clear
3:15 PM 62.6 °F - 35.6 °F 37% 29.94 in 10.0 mi North 18.4 mph 24.2 mph N/A   Clear
3:35 PM 62.6 °F - 33.8 °F 34% 29.93 in 10.0 mi NE 17.3 mph - N/A   Clear
3:55 PM 62.6 °F - 33.8 °F 34% 29.93 in 10.0 mi North 11.5 mph 24.2 mph N/A   Clear
4:15 PM 64.4 °F - 33.8 °F 32% 29.93 in 10.0 mi North 12.7 mph 18.4 mph N/A   Clear
4:35 PM 64.4 °F - 32.0 °F 30% 29.93 in 10.0 mi NNE 11.5 mph 19.6 mph N/A   Clear
4:55 PM 64.4 °F - 32.0 °F 30% 29.93 in 10.0 mi NE 15.0 mph - N/A   Clear
5:15 PM 64.4 °F - 32.0 °F 30% 29.93 in 10.0 mi North 12.7 mph - N/A   Clear
5:35 PM 64.4 °F - 32.0 °F 30% 29.95 in 10.0 mi NNE 10.4 mph 17.3 mph N/A   Clear
5:55 PM 64.4 °F - 32.0 °F 30% 29.96 in 10.0 mi North 9.2 mph - N/A   Clear
6:15 PM 62.6 °F - 32.0 °F 32% 29.97 in 10.0 mi North 8.1 mph - N/A   Clear
6:35 PM 62.6 °F - 32.0 °F 32% 29.97 in 10.0 mi North 9.2 mph - N/A   Clear
6:55 PM 60.8 °F - 32.0 °F 34% 29.99 in 10.0 mi North 8.1 mph - N/A   Clear
7:15 PM 60.8 °F - 32.0 °F 34% 29.99 in 10.0 mi North 9.2 mph - N/A   Clear
7:35 PM 59.0 °F - 32.0 °F 36% 29.99 in 10.0 mi North 8.1 mph - N/A   Clear
7:55 PM 57.2 °F - 32.0 °F 38% 29.99 in 10.0 mi North 8.1 mph - N/A   Clear
8:15 PM 55.4 °F - 32.0 °F 41% 29.99 in 10.0 mi North 6.9 mph - N/A   Clear
8:35 PM 53.6 °F - 32.0 °F 44% 30.00 in 10.0 mi North 6.9 mph - N/A   Clear
8:55 PM 53.6 °F - 32.0 °F 44% 30.00 in 10.0 mi North 6.9 mph - N/A   Clear
9:15 PM 51.8 °F - 32.0 °F 47% 30.00 in 10.0 mi NNE 8.1 mph - N/A   Clear
9:35 PM 51.8 °F - 32.0 °F 47% 30.00 in 10.0 mi NNE 8.1 mph - N/A   Clear
9:55 PM 50.0 °F - 30.2 °F 47% 30.01 in 10.0 mi NNE 8.1 mph - N/A   Clear
10:15 PM 50.0 °F - 30.2 °F 47% 30.01 in 10.0 mi NNE 6.9 mph - N/A   Clear
10:35 PM 50.0 °F - 30.2 °F 47% 30.02 in 10.0 mi NE 8.1 mph - N/A   Clear
10:55 PM 50.0 °F - 30.2 °F 47% 30.02 in 10.0 mi NE 8.1 mph - N/A   Clear
11:15 PM 50.0 °F - 30.2 °F 47% 30.02 in 10.0 mi NE 8.1 mph - N/A   Clear
11:35 PM 50.0 °F - 30.2 °F 47% 30.02 in 10.0 mi NE 5.8 mph - N/A   Clear